Weather History for KHEI - January, 2014

Change the Weather History Date:

Thursday, January 2, 2014

  Actual Average Record
Temperature  
Mean Temperature 12 °F -  
Max Temperature 20 °F 28 °F 48 °F (2007)
Min Temperature 4 °F 5 °F -15 °F (1999)
Degree Days  
Heating Degree Days 53 49  
Month to date heating degree days 112 98  
Since 1 July heating degree days 3834 3677  
Moisture  
Dew Point 6 °F    
Average Humidity 86    
Maximum Humidity 92    
Minimum Humidity 80    
Precipitation  
Precipitation T in 0.02 in 0.04 in (2000)
Month to date precipitation 0.01 0.03  
Year to date precipitation 0.01 0.03  
Sea Level Pressure  
Sea Level Pressure 30.17 in    
Wind  
Wind Speed 8 mph (SE)    
Max Wind Speed 18 mph    
Max Gust Speed 22 mph    
Visibility 6 miles    
Events Snow    
T = Trace of Precipitation, MM = Missing Value Source: NWS Daily Summary

Daily Weather History Graph

Daily Weather History Graph

Search for Another Location

Airport or City:

Trip Planner

Search our weather history database for the weather conditions in past years. The results will help you decide how hot, cold, wet, or windy it might be!

Date:

Astronomy

Jan. 02, 2014 Rise Set
Actual Time 7:32 AM MST 4:17 PM MST
Civil Twilight 6:58 AM MST 4:51 PM MST
Nautical Twilight 6:20 AM MST 5:29 PM MST
Astronomical Twilight 5:44 AM MST 6:05 PM MST
Moon 8:09 AM MST (1/2) 6:24 PM MST (1/2)
Length of Visible Light 9h 53m
Length of Day
8h 44m
Waxing Crescent, 3% of the Moon is Illuminated
Jan 2
Waxing Crescent
Jan 7
First Quarter
Jan 15
Full
Jan 23
Last Quarter
Jan 30
New

Hourly Weather History & Observations

Time (MST) Temp. Windchill Dew Point Humidity Pressure Visibility Wind Dir Wind Speed Gust Speed Precip Events Conditions
12:09 AM 7.0 °F -1.7 °F 3.0 °F 84% 30.20 in 2.5 mi ESE 4.6 mph - 0.00 in Snow Light Snow
12:25 AM 7.0 °F -1.7 °F 3.0 °F 84% 30.20 in 4.0 mi SE 4.6 mph - 0.00 in Snow Light Snow
12:53 AM 7.0 °F 0.1 °F 3.0 °F 84% 30.38 in 5.0 mi SE 3.5 mph - 0.00 in Snow Light Snow
1:53 AM 7.0 °F 0.1 °F 3.0 °F 84% 30.39 in 9.0 mi SE 3.5 mph - 0.00 in Snow Light Snow
2:53 AM 7.0 °F - 3.0 °F 84% 30.40 in 10.0 mi Calm Calm - 0.00 in   Overcast
3:53 AM 7.0 °F -1.7 °F 3.0 °F 84% 30.40 in 10.0 mi ESE 4.6 mph - N/A   Overcast
4:53 AM 6.1 °F -4.3 °F 1.9 °F 83% 30.41 in 10.0 mi East 5.8 mph - N/A   Overcast
5:13 AM 6.1 °F -4.3 °F 1.9 °F 83% 30.23 in 10.0 mi East 5.8 mph - N/A   Overcast
5:26 AM 5.0 °F -6.9 °F 1.9 °F 87% 30.22 in 10.0 mi ESE 6.9 mph - N/A   Overcast
5:53 AM 5.0 °F -5.6 °F 1.9 °F 87% 30.40 in 10.0 mi ESE 5.8 mph - N/A   Overcast
6:53 AM 6.1 °F -4.3 °F 1.9 °F 83% 30.40 in 9.0 mi SSE 5.8 mph - N/A   Overcast
7:53 AM 3.9 °F -10.4 °F 1.0 °F 88% 30.40 in 8.0 mi SE 9.2 mph - N/A   Overcast
8:05 AM 3.9 °F -10.4 °F 1.0 °F 88% 30.21 in 8.0 mi SSE 9.2 mph - N/A   Overcast
8:53 AM 5.0 °F -8.1 °F 1.9 °F 87% 30.39 in 2.5 mi SSE 8.1 mph - N/A   Overcast
9:28 AM 6.1 °F -7.8 °F 3.0 °F 87% 30.21 in 3.0 mi SSE 9.2 mph - N/A   Overcast
9:53 AM 7.0 °F -5.7 °F 3.9 °F 87% 30.39 in 4.0 mi SSE 8.1 mph - N/A   Overcast
10:13 AM 8.1 °F -5.3 °F 3.9 °F 83% 30.20 in 2.5 mi SSE 9.2 mph - N/A   Overcast
10:53 AM 10.0 °F -5.9 °F 7.0 °F 87% 30.35 in 3.0 mi SSE 13.8 mph - N/A   Overcast
11:53 AM 10.9 °F -2.6 °F 8.1 °F 88% 30.30 in 4.0 mi SSE 10.4 mph - N/A   Overcast
12:53 PM 12.9 °F -1.6 °F 10.0 °F 88% 30.25 in 7.0 mi SSE 12.7 mph - N/A   Overcast
1:53 PM 14.0 °F -0.2 °F 10.9 °F 88% 30.22 in 6.0 mi SSE 12.7 mph - N/A   Overcast
2:53 PM 12.0 °F -2.7 °F 10.0 °F 92% 30.21 in 8.0 mi SSE 12.7 mph - N/A   Overcast
3:33 PM 12.9 °F -1.6 °F 10.0 °F 88% 30.03 in 2.5 mi SSE 12.7 mph - N/A   Overcast
3:53 PM 12.9 °F -3.9 °F 10.0 °F 88% 30.18 in 2.5 mi SSE 17.3 mph - N/A   Overcast
4:05 PM 12.9 °F -2.8 °F 10.0 °F 88% 30.01 in 1.5 mi SSE 15.0 mph - N/A   Overcast
4:15 PM 10.9 °F -4.1 °F 8.1 °F 88% 30.00 in 1.2 mi SSE 12.7 mph - N/A   Overcast
4:40 PM 10.9 °F -4.1 °F 8.1 °F 88% 29.99 in 2.5 mi SSE 12.7 mph - N/A   Overcast
4:49 PM 10.4 °F -6.6 °F 8.6 °F 92% 29.99 in 3.0 mi SSE 16.1 mph - N/A   Overcast
4:53 PM 10.9 °F -5.9 °F 8.1 °F 88% 30.15 in 3.0 mi SSE 16.1 mph - N/A   Overcast
4:58 PM 10.0 °F -5.9 °F 7.0 °F 87% 29.98 in 2.0 mi SSE 13.8 mph - N/A   Overcast
5:06 PM 10.0 °F -5.2 °F 7.0 °F 87% 29.98 in 1.5 mi SSE 12.7 mph - N/A   Overcast
5:25 PM 10.0 °F -4.5 °F 6.1 °F 84% 29.97 in 3.0 mi SSE 11.5 mph - N/A   Overcast
5:53 PM 9.0 °F -3.2 °F 6.1 °F 88% 30.14 in 2.5 mi SE 8.1 mph - N/A   Overcast
6:09 PM 10.0 °F -3.7 °F 7.0 °F 87% 29.96 in 3.0 mi SE 10.4 mph - N/A   Overcast
6:51 PM 10.4 °F -0.4 °F 6.8 °F 85% 29.92 in 6.0 mi SE 6.9 mph - N/A   Scattered Clouds
6:53 PM 10.0 °F 0.4 °F 7.0 °F 87% 30.09 in 6.0 mi SE 5.8 mph - N/A   Scattered Clouds
7:53 PM 12.0 °F -1.3 °F 9.0 °F 88% 30.06 in 10.0 mi South 10.4 mph - N/A   Partly Cloudy
8:53 PM 15.1 °F 3.3 °F 10.9 °F 84% 30.00 in 10.0 mi South 9.2 mph - N/A   Scattered Clouds
9:53 PM 15.1 °F 5.2 °F 10.9 °F 84% 29.95 in 10.0 mi SE 6.9 mph - N/A   Clear
10:53 PM 17.1 °F 11.7 °F 12.9 °F 84% 29.89 in 10.0 mi Variable 3.5 mph - N/A   Clear
11:53 PM 19.9 °F 12.1 °F 14.0 °F 78% 29.85 in 10.0 mi WSW 5.8 mph - N/A   Clear